Flag for Zimbabwe Weather past 2 weeks in Harare, Zimbabwe

Now
63 °F

Passing clouds.


Feels Like: 63 °F
Forecast: 61 / 76 °F
Wind: 6 mph from Southeast

Location: Harare Kutsaga Airport

Current Time: Mar 29, 2015 at 2:08:40 AM

Latest Report: Mar 29, 2015 at 1:00 AM


Visibility: N/A

Pressure: 30.18 "Hg

Humidity: 100%

Dew point: 63 °F

Location of HarareLocation

Historic Weather in Harare — Graph

°F

Harare temperature yesterday

Maximum temperature yesterday: 84 °F (at 3:00 PM)
Minimum temperature yesterday: 63 °F (at 11:00 PM)
Average temperature yesterday: 72 °F

Past Weeks' High & Low Weather Summary

 TemperatureHumidityPressure
High84 °F (Mar 17, 1:00 PM)100% (Mar 14, 3:00 AM)30.30 "Hg (Mar 14, 3:00 AM)
Low54 °F (Mar 15, 6:00 AM)32% (Mar 15, 2:00 PM)29.92 "Hg (Mar 20, 12:00 AM)
Average71 °F70%30.20 "Hg
* Reported Midnight between Mar 13 and Mar 14 — Midnight between Mar 28 and Mar 29, Harare, Weather by CustomWeather, © 2015

Note: Actual official high and low records may vary slightly from our data, if they occured in-between our weather recording intervals... More about our weather records

Advertising

Harare weather history for previous 24 hours

 ConditionsComfort  
Time TempWeatherWind HumidityBarometerVisibility
12:00 AM
Sun, Mar 29
61 °FThunderstorms. Passing clouds.7 mph100%30.21 "HgN/A
11:00 PM
Sat, Mar 28
63 °FThunderstorms. Passing clouds.8 mph100%30.24 "HgN/A
10:00 PM64 °FThunderstorms. Passing clouds.7 mph100%30.24 "HgN/A
9:00 PM64 °FThunderstorms. Passing clouds.6 mph100%30.21 "HgN/A
8:00 PM66 °FThunderstorms. Passing clouds.8 mph94%30.18 "Hg5 mi
7:00 PM68 °FThunderstorms. Passing clouds.9 mph83%30.18 "HgN/A
6:00 PM68 °FThunderstorms. Passing clouds.12 mph83%30.12 "HgN/A
5:00 PM77 °FBroken clouds.6 mph61%30.09 "HgN/A
4:00 PM81 °FBroken clouds.6 mph48%30.07 "HgN/A
3:00 PM84 °FBroken clouds.6 mph40%30.09 "HgN/A
2:00 PM82 °FBroken clouds.9 mph48%30.12 "HgN/A
1:00 PM81 °FBroken clouds.10 mph48%30.15 "HgN/A
12:00 PM79 °FBroken clouds.10 mph54%30.18 "HgN/A
11:00 AM79 °FBroken clouds.14 mph54%30.21 "HgN/A
10:00 AM75 °FBroken clouds.15 mph65%30.21 "HgN/A
8:00 AM72 °FBroken clouds.14 mph73%30.21 "HgN/A
7:00 AM68 °FMild.10 mph100%30.21 "HgN/A
4:00 AM66 °FClear.12 mph100%30.15 "Hg10 mi
2:00 AM68 °FClear.14 mph83%30.15 "Hg10 mi
Weather by CustomWeather, © 2015

See weather overviewHow to use our weather pages